ROMMA est une association bénévole à but non lucratif. Votre soutien est indispensable : ADHERER à ROMMA ou FAIRE un DON

Val-d'Arly - (73, Savoie)

Beaufortain (2050 m)   Longitude: 06° 35' 21" E   Latitude: 45° 46' 53" N Station romma n°118
 

Détail journalier du     <<     >>

Température Humidité Vent Dir Rafale Dir. rafale Ensol.
Heure (°C) (%) (km/h) (km/h) (min)
01:00 8.4826OSO40O0
02:00 7.9825OSO37O0
03:00 7.21130O50O0
04:00 6.61531O52O0
05:00 6.21938O66ONO0
06:00 5.92239O53O0
07:00 6.12635O60ONO0
08:00 6.23230O47O40
09:00 6.43728O43O60
10:00 6.13829O47O10
11:00 5.84332ONO53ONO0
12:00 5.24132ONO61ONO0
13:00 3.95036O61O0
14:00 3.46024ONO50O0
15:00 2.86824ONO48ONO0
16:00 0.78321N43ONO0
17:00 0.29129O55ONO0
18:00 -2.79420NO40NO0
19:00 -5.29337NE61NNE0
20:00 -6.39321NNE58NNE0
21:00 -6.2934E15NE0
22:00 -6.3936NNE15NNE0
23:00 -6.49310NE18NNE0
minuit -6.3939NNE27NNE0

Graphique du 17-03-2019

 

Serveur OMMA